Regional Weather Roundup
Issued by NWS Little Rock, AR

Home | Current Version | Previous Version | Text Only | Print | Product List | Glossary Off
Versions: 1 2 3 4 5 6 7 8 9 10 11 12 13 14 15 16 17 18 19 20 21 22 23 24 25 26 27 28 29 30 31 32 33

000
ASUS44 KLZK 040612
RWRLZK

WEATHER ROUNDUP FOR ARKANSAS
NATIONAL WEATHER SERVICE LITTLE ROCK AR
1200 AM CST SUN DEC 04 2016

NOTE: "FAIR" INDICATES FEW OR NO CLOUDS BELOW 12,000 FEET WITH NO
SIGNIFICANT WEATHER AND/OR OBSTRUCTIONS TO VISIBILITY.

ARZ001-003-010-029-040700-
NORTHWEST ARKANSAS

CITY           SKY/WX    TMP DP  RH WIND       PRES   REMARKS
FAYETTEVILLE   CLOUDY    43  43 100 E5        30.05F FOG
6HR MIN TEMP:  41; 6HR MAX TEMP:  43; 6HR PCP:  0.13;

FORT SMITH     CLOUDY    44  42  93 E12       30.06F
6HR MIN TEMP:  44; 6HR MAX TEMP:  45; 6HR PCP:  0.07;

HARRISON       LGT RAIN  37  37 100 E13       30.09F FOG
6HR MIN TEMP:  37; 6HR MAX TEMP:  38; 6HR PCP:  0.04;

BENTONVILLE    CLOUDY    41  36  81 SE9       30.06F
6HR MIN TEMP:  41; 6HR MAX TEMP:  43; 6HR PCP:  0.10;

ROGERS         LGT RAIN  41  39  93 E10       30.06F
6HR MIN TEMP:  40; 6HR MAX TEMP:  41; 6HR PCP:  0.08;

SILOAM SPGS    CLOUDY    43  39  87 CALM      30.05S
6HR MIN TEMP:  41; 6HR MAX TEMP:  43; 6HR PCP:  0.05;

HIGHFILL       CLOUDY    42  41  96 E8        30.05F FOG
6HR MIN TEMP:  41; 6HR MAX TEMP:  42; 6HR PCP:  0.10;

$$

ARZ004-005-016-040700-
NORTH CENTRAL ARKANSAS

CITY           SKY/WX    TMP DP  RH WIND       PRES   REMARKS
BATESVILLE     CLOUDY    41  37  87 E8        30.14S
6HR MIN TEMP:  41; 6HR MAX TEMP:  41; 6HR PCP:  0.11;

FLIPPIN        CLOUDY    39  36  87 E5        30.11R
6HR MIN TEMP:  39; 6HR MAX TEMP:  39; 6HR PCP:  0.07;

MTN HOME       LGT RAIN  38  38 100 SE8       30.13S FOG
6HR MIN TEMP:  38; 6HR MAX TEMP:  39; 6HR PCP:  0.08;

$$

ARZ040-041-040700-
WEST CENTRAL ARKANSAS

CITY           SKY/WX    TMP DP  RH WIND       PRES   REMARKS
MENA           CLOUDY    46  45  93 E3        30.02F
MOUNT IDA      LGT RAIN  45  43  93 E5        30.02S FOG
6HR MIN TEMP:  45; 6HR MAX TEMP:  46; 6HR PCP:  0.09;

$$

ARZ009-017-025-026-028-040700-
NORTHEAST ARKANSAS

CITY           SKY/WX    TMP DP  RH WIND       PRES   REMARKS
CORNING        CLOUDY    39  39 100 NE10      30.16F
JONESBORO      CLOUDY    41  39  93 E15       30.11F
6HR MIN TEMP:  41; 6HR MAX TEMP:  42; 6HR PCP:  0.14;

NEWPORT        CLOUDY    41  40  96 NE12        N/A
6HR MIN TEMP:  41; 6HR MAX TEMP:  42; 6HR PCP:  0.15;

WALNUT RIDGE   CLOUDY    39  36  87 NE12      30.14F
6HR MIN TEMP:  39; 6HR MAX TEMP:  43; 6HR PCP:  0.08;

BLYTHEVILLE    LGT RAIN  41  38  89 E9        30.16F
6HR MIN TEMP:  41; 6HR MAX TEMP:  43; 6HR PCP:  0.17;

$$

ARZ022-023-033-042-044-040700-
CENTRAL ARKANSAS

CITY           SKY/WX    TMP DP  RH WIND       PRES   REMARKS
LITTLE ROCK    DRIZZLE   42  42 100 NE10      30.07F FOG
6HR MIN TEMP:  42; 6HR MAX TEMP:  43; 6HR PCP:  0.12;

N LITTLE ROCK    N/A     42  40  96 E10       30.07F
6HR MIN TEMP:  42; 6HR MAX TEMP:  43;

JACKSONVILLE   LGT RAIN  43  43 100 NE12      30.04F
6HR MIN TEMP:  43; 6HR MAX TEMP:  43; 6HR PCP:  0.11;

SEARCY         CLOUDY    42  41  96 NE10      30.12F
6HR MIN TEMP:  42; 6HR MAX TEMP:  43; 6HR PCP:  0.14;

HOT SPRINGS    CLOUDY    45  44  97 E9        30.04F FOG
6HR MIN TEMP:  45; 6HR MAX TEMP:  46; 6HR PCP:  0.06;

RUSSELLVILLE   LGT RAIN  43  41  93 CALM      30.10R FOG
6HR MIN TEMP:  42; 6HR MAX TEMP:  44; 6HR PCP:  0.11;

CLINTON        DRZL/FOG  41  41 100 CALM      30.11S VSB 1
$$

ARZ036-040700-
EAST ARKANSAS

CITY           SKY/WX    TMP DP  RH WIND       PRES   REMARKS
WEST MEMPHIS   LGT RAIN  42  42 100 E10       30.10F FOG
6HR MIN TEMP:  42; 6HR MAX TEMP:  43; 6HR PCP:  0.21;

$$

ARZ050-053-066-070-073-040700-
SOUTHWEST ARKANSAS

CITY           SKY/WX    TMP DP  RH WIND       PRES   REMARKS
ARKADELPHIA    LGT RAIN  46  45  96 NE6       30.03F FOG
6HR MIN TEMP:  46; 6HR MAX TEMP:  46; 6HR PCP:  0.30;

CAMDEN         CLOUDY    46  43  87 E8        30.00R
TEXARKANA      CLOUDY    46  46 100 NE6       30.02R
6HR MIN TEMP:  45; 6HR MAX TEMP:  46; 6HR PCP:  0.06;

EL DORADO      CLOUDY    47  45  93 E13       29.95F
6HR MIN TEMP:  46; 6HR MAX TEMP:  47; 6HR PCP:  0.15;

DE QUEEN       CLOUDY    46  46 100 E8        30.00F
6HR MIN TEMP:  46; 6HR MAX TEMP:  47; 6HR PCP: TRACE;

$$

ARZ056-057-069-040700-
SOUTHEAST ARKANSAS

CITY           SKY/WX    TMP DP  RH WIND       PRES   REMARKS
PINE BLUFF     CLOUDY    44  43  96 E15       30.01F
6HR MIN TEMP:  44; 6HR MAX TEMP:  46; 6HR PCP:  0.40;

STUTTGART      CLOUDY    45  39  81 E16       30.04F
6HR MIN TEMP:  45; 6HR MAX TEMP:  46; 6HR PCP:  0.29;

MONTICELLO     CLOUDY    45  44  97 E16       30.00F
6HR MIN TEMP:  45; 6HR MAX TEMP:  46; 6HR PCP:  0.43;


$$






USA.gov is the U.S. government's official web portal to all federal, state and local government web resources and services.